Regional Weather Roundup
Issued by NWS

Home | Current Version | Previous Version | Graphics & Text | Print | Product List | Glossary On
Versions: 1 2 3 4 5 6 7 8 9 10 11 12 13 14 15 16 17 18 19 20 21 22 23 24 25 26 27 28 29 30 31 32 33 34 35 36 37 38 39 40 41 42 43 44 45 46 47 48 49 50
000
ASUS43 KLMK 151810
RWRKY
KENTUCKY REGIONAL WEATHER ROUNDUP
NATIONAL WEATHER SERVICE LOUISVILLE KY
200 PM EDT MON SEP 15 2014

NOTE "FAIR" INDICATES FEW OR NO CLOUDS BELOW 12,000 FEET
WITH NO SIGNIFICANT WEATHER AND/OR OBSTRUCTIONS TO VISIBILITY.

KYZ001>023-026-027-061>063-070>075-151900-
WESTERN AND SOUTH CENTRAL KENTUCKY

CITY           SKY/WX    TMP DP  RH WIND       PRES   REMARKS
PADUCAH        CLOUDY    76  58  53 SW10      30.13F
HENDERSON      PTSUNNY   75  54  46 SW10      30.13F
OWENSBORO      PTSUNNY   76  55  47 VRB6      30.14F
HOPKINSVILLE   CLOUDY    72  61  68 S6        30.14F
BOWLING GREEN  PTSUNNY   73  58  59 SW5       30.16F
GLASGOW        CLOUDY    73  56  55 SW3       30.16F
$$

KYZ024-025-028>034-038-045-046-053-151900-
NORTH CENTRAL KENTUCKY

CITY           SKY/WX    TMP DP  RH WIND       PRES   REMARKS
LOUISVILLE/SDF CLOUDY    74  54  49 SW6       30.15S
LOUISVILLE/LOU PTSUNNY   71  53  52 S5        30.16F
FORT KNOX      CLOUDY    75  55  49 S6        30.14F
$$

KYZ035>037-039>044-047>052-055>060-089>105-151900-
NORTHEAST KENTUCKY

CITY           SKY/WX    TMP DP  RH WIND       PRES   REMARKS
LEXINGTON      PTSUNNY   74  54  49 SW6       30.16F
COVINGTON      PTSUNNY   70  50  49 W6        30.16F
FRANKFORT      NOT AVBL
$$

KYZ054-064>069-076>088-106>120-151900-
SOUTHEAST KENTUCKY

CITY           SKY/WX    TMP DP  RH WIND       PRES   REMARKS
JACKSON        PTSUNNY   72  58  61 CALM      30.17F
LONDON         CLOUDY    74  59  59 CALM      30.18F
SOMERSET       NOT AVBL
MIDDLESBORO    CLOUDY    75  64  68 SE5       30.16F
MONTICELLO     CLOUDY    74  61  63 CALM      30.19F
$$




USA.gov is the U.S. government's official web portal to all federal, state and local government web resources and services.